DECAYED

STARLINK-4578, 53965 (Decayed)

Orbit data source: Space-Track

STARLINK-4578, 53965 was a payload satellite owned by SpaceX/Seattle (US) in LEO that was launched on Wed, 05 Oct 2022 UTC via an FALCON 9 launch vehicle from the Air Force Western Test Range (AFWTR). Payload-class satellites include a variety of spacecraft equipped with specific instruments for various scientific and technological missions. These include communications satellites like Starlink; space stations such as the ISS; scientific satellites like the Hubble; Earth observation satellites from companies like Planet Labs, Umbra, and HawkEye 360; GPS; miniature CubeSats for education and research; and military/defense satellites.

Not visible in the next 10 days
Identifier
53965, 2022-125B
Orbit
Decayed
Country
Flag of USUS
Related business
Manufacturer
SpaceX/Seattle
Mission
Decayed Commercial Communications
Bus & Motor
STARLINK, Unknown motor
Mass
305 kg wet, ~290 kg dry
Launch date (UTC)
2022-10-05 (4 years ago)
Launch vehicle
FALCON 9
Launch site
Air Force Western Test Range (AFWTR)
Object type
Payload
Rocket body
Debris
Shape & HBR
Box + 1 Pan, 10.1 m
Radar Cross Section
13.562 m², Large (>1 m²)

Expand to show TLE details & history
Last TLE update: 2 months ago

TLE from 2 months ago
0 STARLINK-4578
1 53965U 22125B   26106.06572197  .04520664  12480-4  16014-3 0  9993
2 53965  53.2095  26.3049 0007935 290.9456  69.0745 16.43831422195388
Epoch: 2026-04-16T01:34Z
TLE epoch observation values (Epoch: 2026-04-16T01:34:38.378Z)
Latitude
Longitude
158.42638°
Altitude
154.731 km
Speed
7.816 km/s
True Right ascension
01h 45m 13s
True Declination
0° 00' 00"
Sunlit
Object was in daylight at epoch
Visualization orbit readout
Latitude
Unknown
Longitude
Unknown
Altitude
Unknown
Speed
Unknown
Apparent Right ascension
Unknown
Apparent Declination
Unknown
Sunlit
N/A
Visualization observer readout
Local Sidereal Time
21:33:18
Azimuth
Unknown
Elevation
Unknown
Doppler factor
Unknown
Orbital elements
Apogee altitude
161.075 km
Perigee altitude
150.706 km
Semi-major axis
6,534.027 km
Eccentricity
0.00079
Inclination
53.2095°
RAAN
26.3049°
Arg. of periapsis
290.9456°
True anomaly
69.15946°
Mean anomaly
69.0745°
Eccentric anomaly
69.11698°
Mean motion
4.10934 °/min
Orbital period
87.61 mins
BSTAR
0.00016014
Loading maneuver chart data...
Computing Atmospheric mass density...
Loading historical data...
Loading historical data...
Loading historical data...
Loading historical data...
Loading historical data...
Loading historical data...
Loading historical data...

Documentation

Showing up to 5 results
|